Regional Weather Roundup
Issued by NWS Jackson, KY

Home | Current Version | Previous Version | Text Only | Print | Product List | Glossary Off
Versions: 1 2 3 4 5 6 7 8 9 10 11 12 13 14 15 16 17 18 19 20 21 22 23 24 25 26 27 28 29 30 31 32 33 34 35 36 37 38 39 40 41 42 43 44 45 46 47 48 49 50

000
ASUS43 KJKL 030010
RWRJKL

EAST KENTUCKY HOURLY WEATHER ROUNDUP
NATIONAL WEATHER SERVICE JACKSON KY
800 PM EDT MON MAY 02 2016

NOTE: "FAIR" INDICATES FEW OR NO CLOUDS BELOW 12,000 FEET WITH
NO SIGNIFICANT WEATHER AND/OR OBSTRUCTIONS TO VISIBILITY.

* THESE REPORTS ARE NOT UNDER NWS QUALITY CONTROL AND MAY NOT
  REPORT WEATHER SUCH AS PRECIPITATION AND FOG.

KYZ079-080-083-085-087-088-110-112-115-119-120-030100
...EASTERN KENTUCKY...

CITY           SKY/WX    TMP DP  RH WIND       PRES   REMARKS
JACKSON        LGT RAIN  58  57  97 CALM      29.92S VSB 1/2
6HR MIN TEMP:  58; 6HR MAX TEMP:  63; 6HR PCP:  0.97;

LONDON         CLOUDY    60  58  92 S5        29.93R
6HR MIN TEMP:  59; 6HR MAX TEMP:  62;

SOMERSET*      CLOUDY    59  59 100 CALM      29.94F
MONTICELLO*    CLOUDY    62  60  93 NE8       29.95S
6HR MIN TEMP:  61; 6HR MAX TEMP:  66; 6HR PCP:  0.20;

WILLIAMSBURG*  CLOUDY    59  59 100 CALM      29.94F
MIDDLESBORO*   CLOUDY    60  59  96 CALM      29.95R
6HR MIN TEMP:  59; 6HR MAX TEMP:  74; 6HR PCP:  0.63;

HARLAN APT*    CLOUDY    59  55  88 CALM      29.94S
HAZARD APT*    CLOUDY    59  59 100 CALM      29.94S
BLACK MTN*       N/A     54  52  94 W3          N/A
PIKE CO APT*   CLOUDY    58  58 100 S6        29.92S
BIG SANDY APT* CLOUDY    60  60  98 SW5       29.92R
6HR MIN TEMP:  60; 6HR MAX TEMP:  71;

MOREHEAD APT*  CLOUDY    61  59  94 CALM      29.93S
$$

KYZ035-036-041-042-044-050-067-078-099-030100
...CENTRAL KENTUCKY...

CITY           SKY/WX    TMP DP  RH WIND       PRES   REMARKS
MT STERLING*   CLOUDY    61  59  94 CALM      29.93S
FLEMING/MASON* CLOUDY   N/A N/A N/A SW5       29.93R
DANVILLE*      CLOUDY    59  55  88 W3        29.95R
RICHMOND*      CLOUDY    61  57  88 W6        29.92S
LEXINGTON      CLOUDY    62  57  83 SW7       29.93S
6HR MIN TEMP:  60; 6HR MAX TEMP:  64; 6HR PCP:  0.06;

FRANKFORT      CLOUDY    63  50  62 NW3       29.92S
6HR MIN TEMP:  63; 6HR MAX TEMP:  69;

LOUISVILLE     CLOUDY    63  50  62 NW8       29.93S
6HR MIN TEMP:  63; 6HR MAX TEMP:  67;

LEBANON*       CLOUDY    61  57  88 W5        29.94S
BOWLING GREEN  CLOUDY    62  56  80 CALM      29.93F
6HR MIN TEMP:  59; 6HR MAX TEMP:  63; 6HR PCP:  0.06;

$$

KYZ091>093-OHZ055-061-077-WVZ005-015-034-035-042-030100
...SOUTHERN OHIO/WEST VIRGINIA...

CITY           SKY/WX    TMP DP  RH WIND       PRES   REMARKS
COVINGTON      CLOUDY    61  52  72 W9        29.93R
COLUMBUS       CLOUDY    55  50  83 NE9       29.93R
DAYTON         CLOUDY    54  50  86 NE8       29.96R
WILMINGTON     CLOUDY    56  52  86 NE12      29.93R
HUNTINGTON     MOCLDY    61  59  93 S3        29.91S
CHARLESTON     LGT RAIN  63  60  90 S8        29.90F
PINEVILLE*     DRIZZLE   61  58  91 MISG      30.02S
BECKLEY        CLOUDY    58  56  93 CALM      29.98S
$$

VAZ002-007-008-TNZ017-027-036-066-071-030100
...SOUTHWEST VIRGINIA/EAST TENNESSEE...

CITY           SKY/WX    TMP DP  RH WIND       PRES   REMARKS
WISE*          MOCLDY    55  55 100 CALM      29.98F
BRISTOL        CLOUDY    61  55  81 E8        29.96R THUNDER
MORRISTOWN*    MOCLDY    61  59  94 SE3       29.93R
SEVIERVILLE*   CLOUDY    61  59  94 CALM      29.94F
KNOXVILLE      LGT RAIN  62  59  90 NE5       29.95R
OAK RIDGE      CLOUDY    63  59  87 E5        29.94R
CROSSVILLE     CLOUDY    64  58  80 CALM      29.95F
NASHVILLE      CLOUDY    61  57  87 NW8       29.94R
$$

...KEY TO REMARKS...
VSB - VISIBILITY IN MILES
WCI - WIND CHILL INDEX
HX  - HEAT INDEX

$$



USA.gov is the U.S. government's official web portal to all federal, state and local government web resources and services.